Flag for South Korea Weather past 2 weeks in Gunsan, South Korea

Now
67 °F

Light rain. Fog.


Feels Like: 67 °F
Forecast: 66 / 78 °F
Wind: 7 mph from Northeast

Location: Kunsan Ab

Current Time: Jul 7, 2015 at 10:21:03 PM

Latest Report: Jul 7, 2015 at 9:58 PM


Visibility: 4 mi

Pressure: 29.80 "Hg

Humidity: 100%

Dew point: 67 °F

Location of GunsanLocation

Historic Weather in Gunsan — Graph

°F

Gunsan temperature yesterday

Maximum temperature yesterday: 80 °F (at 12:58 PM)
Minimum temperature yesterday: 66 °F (at 4:58 AM)
Average temperature yesterday: 73 °F

Past Weeks' High & Low Weather Summary

 TemperatureHumidityPressure
High81 °F (Jun 23, 2:58 PM)100% (Jun 23, 2:58 AM)29.90 "Hg (Jun 23, 2:58 AM)
Low64 °F (Jul 4, 4:58 AM)49% (Jun 23, 2:58 PM)29.30 "Hg (Jun 26, 3:04 AM)
Average72 °F86%29.70 "Hg
* Reported Jun 22 8:58 PM — Jul 7 8:59 PM, Gunsan, Weather by CustomWeather, © 2015

Note: Actual official high and low records may vary slightly from our data, if they occured in-between our weather recording intervals... More about our weather records

Advertising

Gunsan weather history for previous 24 hours

 ConditionsComfort  
Time TempWeatherWind HumidityBarometerVisibility
8:59 PM
Tue, Jul 7
67 °FOvercast.8 mph100%29.79 "Hg10 mi
7:58 PM66 °FLow clouds.12 mph100%29.79 "Hg9 mi
6:58 PM67 °FBroken clouds.9 mph98%29.80 "Hg7 mi
5:58 PM68 °FDrizzle. Fog.8 mph94%29.80 "Hg5 mi
4:58 PM69 °FDrizzle. More clouds than sun.12 mph90%29.80 "Hg9 mi
3:59 PM69 °FFog.5 mph99%29.80 "Hg5 mi
3:48 PM68 °FDrizzle. Fog.6 mph100%29.79 "Hg5 mi
2:58 PM68 °FDrizzle. Fog.6 mph94%29.80 "Hg4 mi
2:04 PM70 °FLight rain. Fog.7 mph94%29.81 "Hg3 mi
1:58 PM69 °FLight rain. Fog.5 mph92%29.82 "Hg3 mi
12:58 PM73 °FLight rain. Fog.5 mph91%29.84 "Hg2 mi
11:58 AM72 °FLight rain. Fog.6 mph97%29.85 "Hg2 mi
10:58 AM72 °FLight rain. Fog.5 mph91%29.85 "Hg3 mi
9:58 AM71 °FLight rain. Fog.6 mph88%29.83 "Hg4 mi
8:58 AM70 °FLight rain. Fog.3 mph88%29.83 "Hg4 mi
7:58 AM71 °FLight rain. Fog.5 mph81%29.84 "Hg4 mi
6:58 AM71 °FMostly cloudy.3 mph83%29.82 "Hg7 mi
5:58 AM70 °FSunny.2 mph89%29.83 "Hg10 mi
4:58 AM69 °FClear.3 mph93%29.83 "Hg10 mi
3:58 AM70 °FClear.3 mph88%29.84 "Hg10 mi
2:58 AM70 °FClear.5 mph91%29.84 "Hg10 mi
1:58 AM71 °FClear.No wind84%29.86 "Hg10 mi
12:58 AM72 °FClear.No wind79%29.86 "Hg10 mi
11:58 PM
Mon, Jul 6
71 °FPassing clouds.1 mph78%29.87 "Hg10 mi
10:58 PM71 °FClear.3 mph73%29.87 "Hg10 mi
Weather by CustomWeather, © 2015

See weather overviewHow to use our weather pages